www.pogodaiklimat.ru

Погода и климат >> Архив погоды >> Индонезия >> Nangapinoh


ПОГОДА в Nangapinoh

  • Прогноз погоды в Nangapinoh
  • Монитор погоды в Nangapinoh
  • Климат города

АРХИВ ПОГОДЫ в Nangapinoh

Время (UTC), дата Ветер
(напр.,м/с)
 
Видим.   Явления Облачность Т
(С)
Тd
(С)
f
(%)
Тe
(С)
Тes
(С)
Комфортность P
(гПа)
Po
(гПа)
Тmin
(С)
Tmax
(С)
R
(мм)
R24
(мм)
S
(см)
00 14.08 В 1 1000 м слабый дождь 10/6 300 м
[Cb cap As op]
+23.8 +23.5 98 +32 +32 очень
душно
1013.5 1008.5 +23.1 24
03 14.08 ЮЗ 2 4000 м мгла {дождь} 10/6 270 м
[Cb cap As op]
+26.0 +24.2 90 +36 +38 очень
душно
1013.9 1009.1 2
06 14.08 ЮЗ 3 8000 м {дождь} 9/6 300 м
[Cb cap As op Ci fib]
+28.2 +24.1 78 +39 +43 очень
душно
1010.7 1005.9 8
09 14.08 Ю 4 8000 м осадки на расстоянии 9/6 300 м
[Cb cap As op Ci fib]
+30.2 +22.9 65 +40 +41 очень
душно
1008.4 1003.6
12 14.08 СВ 2 6000 м 10/6 300 м
[Cb cap As op]
+26.5 +24.3 88 +37 +37 очень
душно
1010.6 1005.8 +31.6
15 14.08 СВ 1 1000 м мгла 10/6 300 м
[Cb cap As op]
+24.8 +23.8 94 +34 +34 очень
душно
1012.0 1007.2
00 15.08 штиль 0 2000 м дымка 10/8 300 м
[Cu Sc As op]
+24.3 +23.8 97 +33 +33 очень
душно
1012.8 1008.2 +23.6 9
03 15.08 В 2 8000 м 9/6 300 м
[Cu med, cong As op Ci fib]
+27.3 +23.3 79 +37 +42 очень
душно
1012.4 1007.6
06 15.08 СВ 3 8000 м 9/6 300 м
[Cu med, cong Ac As Ci fib]
+30.8 +24.3 68 +43 +47 опасность
перегрева
1008.9 1004.2
09 15.08 Ю 3 8000 м 9/6 300 м
[Cb cap Ac As Ci fib]
+29.6 +23.5 70 +40 +41 очень
душно
1007.9 1003.1
12 15.08 В 3 6000 м 9/6 300 м
[Cb cap As op Ci fib]
+27.3 +24.2 83 +38 +38 очень
душно
1009.8 1005.0 +31.2
15 15.08 В 2 4000 м в посл. час дождь 10/6 300 м
[Cb cap As op]
+24.8 +23.5 92 +33 +33 очень
душно
1012.0 1007.2 0.0
00 16.08 штиль 0 1000 м мгла 8/6 300 м
[Cu med, cong Ac As Ci fib]
+23.4 +22.4 94 +32 +33 очень
душно
1010.9 1006.1 +23.0 0.0
03 16.08 ЮВ 2 8000 м 8/6 300 м
[Cu med, cong Ac As Ci fib]
+28.8 +24.0 75 +40 +45 очень
душно
1010.7 1005.9
06 16.08 С 1 10 км 9/6 330 м
[Cu med, cong Ac As Ci fib]
+31.4 +23.6 63 +42 +48 опасность
перегрева
1007.8 1003.1
09 16.08 Ю 3 10 км осадки на расстоянии 9/6 300 м
[Cb cap Ac As Ci fib]
+32.0 +23.3 60 +43 +43 опасность
перегрева
1006.5 1001.7
12 16.08 СВ 2 3000 м слабый дождь 10/6 300 м
[Cb cap As op]
+26.9 +24.7 88 +38 +38 очень
душно
1009.1 1004.3 +32.4 0.5
15 16.08 СЗ 5 1000 м дождь 10/6 300 м
[Cb cap As op]
+23.4 +22.8 96 +33 +33 очень
душно
1011.7 1006.9 24
00 17.08 В 2 6000 м в посл. час дождь 10/6 300 м
[Cb cap As op]
+22.8 +22.5 98 +31 +31 очень
душно
1011.0 1006.2 +22.8 76
03 17.08 В 2 10 км 10/6 300 м
[Cb cap As op]
+26.0 +23.0 84 +35 +36 очень
душно
1011.3 1006.5
06 17.08 ЮВ 1 10 км {дождь} 10/6 300 м
[Cb calv As op]
+26.8 +23.2 81 +36 +38 очень
душно
1009.2 1004.4 0.0
09 17.08 З 2 10 км 10/5 330 м
[Cu med, cong As op Ci fib]
+28.0 +23.6 77 +38 +39 очень
душно
1008.3 1003.5
12 17.08 Ю 2 3000 м слабый дождь 10/8 300 м
[Cb cap As op]
+25.8 +24.3 91 +36 +36 очень
душно
1009.6 1004.8 +28.3 0.0
15 17.08 штиль 0 2000 м мгла {дождь} 10/6 300 м
[Cb cap As op]
+25.2 +24.0 93 +35 +35 очень
душно
1010.7 1005.9 0.0
00 18.08 штиль 0 8000 м 10/5 300 м
[Cb calv As op]
+24.0 +23.4 96 +32 +33 очень
душно
1011.7 1006.9 +22.6 0.0
03 18.08 ЮВ 2 10 км 10/4 330 м
[Cu med, cong Ac As]
+27.4 +23.6 80 +37 +41 очень
душно
1012.0 1007.2
06 18.08 ЮВ 2 10 км 9/6 300 м
[Cb calv As op Ci fib]
+29.8 +24.5 73 +42 +46 опасность
перегрева
1009.6 1004.6
09 18.08 ЮВ 2 10 км 9/5 300 м
[Cu med, cong Ac As Ci fib]
+30.0 +23.6 69 +41 +42 опасность
перегрева
1008.8 1004.0
12 18.08 ЮВ 2 7000 м 9/6 300 м
[Cb calv As op]
+27.7 +23.6 78 +38 +38 очень
душно
1010.6 1005.8 +32.0
15 18.08 В 2 2000 м мгла 9/6 300 м
[Cb calv As op]
+25.8 +23.4 87 +35 +35 очень
душно
1011.7 1006.9
00 19.08 В 2 3000 м мгла 9/5 300 м
[Cu med, cong As op]
+24.1 +23.1 94 +32 +33 очень
душно
1012.3 1007.5 +23.1
03 19.08 ЮВ 2 10 км 9/5 330 м
[Cu med, cong As op Ci fib]
+29.7 +23.3 69 +40 +46 очень
душно
1012.2 1007.4
06 19.08 Ю 2 10 км 8/6 300 м
[Cu med, cong As op Ci fib]
+32.5 +23.8 60 +44 +50 опасность
перегрева
1009.2 1004.4
09 19.08 В 2 10 км 8/6 300 м
[Cb calv As op Ci fib]
+31.7 +24.1 64 +44 +45 опасность
перегрева
1007.5 1002.8
12 19.08 Ю 2 7000 м 8/5 300 м
[Cb cap As op Ci fib]
+28.0 +23.6 77 +38 +38 очень
душно
1010.0 1005.2 +33.0
15 19.08 штиль 0 4000 м мгла 9/5 300 м
[Cb cap As op Ci fib]
+26.4 +23.8 86 +36 +36 очень
душно
1011.7 1006.9
00 20.08 штиль 0 2000 м мгла 9/6 300 м
[Cu med, cong As op]
+24.0 +22.6 92 +31 +32 очень
душно
1010.9 1006.2 +23.8
03 20.08 ЮВ 1 10 км 8/6 300 м
[Cu med, cong As op Ci fib]
+30.0 +23.2 67 +40 +47 очень
душно
1010.7 1005.9
06 20.08 Ю 2 10 км 8/6 330 м
[Cu med, cong As trans Ci fib]
+32.6 +23.3 58 +43 +49 опасность
перегрева
1007.9 1003.2
09 20.08 ЮВ 2 10 км 9/6 300 м
[Cb cap As op Ci fib]
+31.8 +24.5 65 +44 +45 опасность
перегрева
1006.1 1001.4
12 20.08 З 1 7000 м зарница 9/5 300 м
[Cb cap As op]
+29.1 +25.0 79 +42 +42 опасность
перегрева
1007.8 1003.0 +34.0

 

Местоположение метеостанции Nangapinoh (Индонезия): широта -0.35 долгота 111.78 высота над уровнем моря 37 м.

В архиве по умолчанию представлена погода в Nangapinoh за последнюю неделю. Архивные данные за месяц целиком и за предыдущие месяцы, начиная с января 2011 года, Вы можете получить, выбрав интересующий диапазон дат из раскрывающегося списка и нажав кнопку "Ввод!".

Внимание! Время в таблицах - всемирное. Для получения местного времени необходимо прибавить поправку, которая в Nangapinoh равна 7 ч.

Смотрите также архив погоды в соседних городах и на ближайших метеорологических станциях:

Погода в Sintang (Индонезия) (59 км)
Погода в Putussibau (Индонезия) (185 км)
Погода в Palangkaraya (Индонезия) (257 км)
Погода в Kuching (Малайзия) (260 км)
Погода в Pangkalan Bun (Индонезия) (262 км)
Погода в Ketapang (Индонезия) (262 км)
Погода в Pontianak (Индонезия) (266 км)
Погода в Sibu (Малайзия) (298 км)
Погода в Muaratewe (Индонезия) (353 км)
Погода в Paloh (Индонезия) (363 км)

Пояснения к столбцам:

Ветер - указаны скорость ветра в м/с - средняя за 10 мин, порывы в срок и между сроками (в фигурных скобках) и направление, откуда дует ветер: С - северный, СВ - северо-восточный, В - восточный, ЮВ - юго-восточный, Ю - южный, ЮЗ - юго-западный, З - западный, СЗ - северо-западный.
Видимость - горизонтальная дальность видимости в метрах или километрах. При видимости от 1 до 10 км при отсутствии осадков обычно наблюдается дымка, при ухудшении видимости до 1 км и менее - туман. В сухую погоду видимость может ухудшаться дымом, пылью или мглою.
Явления - указаны атмосферные явления, наблюдавшиеся в срок или в последний час перед сроком; фигурными скобками обозначены явления, наблюдавшиеся между сроками (за 1-3 часа до срока); квадратными скобками обозначены град или гололедные отложения с указанием их диаметра в мм.
Облачность - указаны через наклонную черту общая и нижняя облачность в баллах и высота нижней границы облаков в метрах; квадратными скобками обозначены формы облаков: Ci - перистые, Cs - перисто-слоистые, Cc - перисто-кучевые, Ac - высококучевые, As - высокослоистые, Sc - слоисто-кучевые, Ns - слоисто-дождевые, Cu - кучевые, Cb - кучево-дождевые. Подробнее классификацию облаков см. в Атласе облаков (PDF).
T - Температура воздуха - температура, измеренная на высоте 2 м над землей.
Td - Температура точки росы - температура, при понижении до которой содержащийся в воздухе водяной пар достигнет насыщения.
f - Относительная влажность воздуха - влажноcть воздуха, измеренная на высоте 2 м над землей.
Te - Эффективная температура - температура, которую ощущает одетый по сезону человек в тени. Характеристика душности погоды. При расчете учитывается влияние влажности воздуха и скорости ветра на теплоощущения человека.
Tes - Эффективная температура на солнце - температура, которую ощущает человек, с поправкой на солнечный нагрев. Характеристика знойности погоды. Зависит от высоты солнца над горизонтом, облачности и скорости ветра. Ночью, в пасмурную погоду, а также при ветре 12 м/с и более поправка равна нулю.
P - Атмосферное давление - приведенное к уровню моря атмосферное давление.
Po - Атмосферное давление - измеренное на уровне метеостанции атмосферное давление.
Tmin - Минимальная температура - минимум температуры воздуха на высоте 2 м над землей.
Tmax - Максимальная температура - максимум температуры воздуха на высоте 2 м над землей.
R - Количество осадков - Количество выпавших осадков за период времени, мм. При наведении курсора мыши на число - период времени, за который выпало указанное количество осадков.
R24 - Количество осадков - Количество выпавших осадков за 24 часа, мм.
S - Снежный покров - Высота снежного покрова, см. При наведении курсора мыши на число - состояние снежного покрова и степень покрытия местности в баллах.